Langara Island,

9:46 PM PST on November 17, 2017 (GMT -0800)
Langara Island

Weather History for CWJU - December, 2013

Change the Weather History Date:

Sunday, December 22, 2013

  Actual Average Record
Temperature  
Mean Temperature 44 °F -  
Max Temperature 47 °F - - ()
Min Temperature 41 °F - - ()
Degree Days  
Heating Degree Days 21    
Moisture  
Dew Point 45 °F    
Average Humidity 97    
Maximum Humidity 100    
Minimum Humidity 91    
Precipitation  
Precipitation 0.75 in - - ()
Sea Level Pressure  
Sea Level Pressure 29.66 in    
Wind  
Wind Speed 14 mph ()    
Max Wind Speed 30 mph    
Max Gust Speed 43 mph    
T = Trace of Precipitation, MM = Missing Value Source: Averaged Metar Reports

Daily Weather History Graph

Daily Weather History Graph

Search for Another Location

Airport or City:

Trip Planner

Search our weather history database for the weather conditions in past years. The results will help you decide how hot, cold, wet, or windy it might be!

Date:

Astronomy

Dec. 22, 2013 Rise Set
Actual Time 9:11 AM PST 4:30 PM PST
Civil Twilight 8:27 AM PST 5:15 PM PST
Nautical Twilight 7:40 AM PST 6:01 PM PST
Astronomical Twilight 6:56 AM PST 6:45 PM PST
Moon 10:38 PM PST (12/22) 11:27 AM PST (12/22)
Length of Visible Light 8h 48m
Length of Day
7h 19m
Waning Gibbous, 76% of the Moon is Illuminated
Dec 22
Waning Gibbous
Dec 25
Last Quarter
Jan 1
New
Jan 7
First Quarter
Jan 15
Full

Hourly Weather History & Observations

Time (PST) Temp. Windchill Dew Point Humidity Pressure Visibility Wind Dir Wind Speed Gust Speed Precip Events Conditions
12:00 AM 45.0 °F 41.8 °F 44.2 °F 97% 29.80 in - SSW 5.8 mph - 0.04 in   Unknown
1:00 AM 46.2 °F 42.2 °F 45.5 °F 97% 29.79 in - SW 8.1 mph 17.3 mph 0.07 in   Unknown
2:00 AM 46.4 °F 41.5 °F 45.7 °F 97% 29.79 in - SW 10.4 mph 18.4 mph 0.12 in   Unknown
3:00 AM 46.6 °F - 45.9 °F 97% 29.78 in - SW 8.1 mph - 0.07 in   Unknown
4:00 AM 47 °F - 46 °F 95% 29.76 in - SW 11.5 mph - -  
4:00 AM 46.8 °F - 46.0 °F 97% 29.76 in - SW 11.5 mph 23.0 mph 0.05 in   Unknown
5:00 AM 46.9 °F - 46.4 °F 98% 29.74 in - SW 12.7 mph 24.2 mph 0.03 in   Unknown
6:00 AM 47.1 °F - 46.4 °F 97% 29.72 in - SW 13.8 mph 32.2 mph 0.03 in   Unknown
7:00 AM 45.5 °F 38.9 °F 46.6 °F 100% 29.70 in - SW 15.0 mph 32.2 mph 0.03 in   Unknown
8:00 AM 47.1 °F - 46.6 °F 98% 29.67 in - SW 16.1 mph 35.7 mph 0.05 in   Unknown
9:00 AM 45.5 °F 37.6 °F 46.8 °F 100% 29.65 in - SW 20.7 mph 35.7 mph 0.06 in   Unknown
10:00 AM 48 °F - 47 °F 96% 29.63 in - SW 21.9 mph - -  
10:00 AM 47.7 °F - 47.1 °F 98% 29.63 in - SW 21.9 mph 42.6 mph 0.11 in   Unknown
11:00 AM 47.8 °F - 45.5 °F 92% 29.62 in - SW 20.7 mph 40.3 mph 0.20 in   Unknown
12:00 PM 47.8 °F - 47.1 °F 97% 29.59 in - SW 20.7 mph 42.6 mph 0.05 in   Unknown
1:00 PM 47.5 °F - 46.9 °F 98% 29.57 in - WSW 18.4 mph 35.7 mph 0.05 in   Unknown
2:00 PM 45.5 °F 38.3 °F 46.6 °F 100% 29.55 in - WSW 17.3 mph 31.1 mph 0.18 in   Unknown
3:00 PM 46.8 °F - 46.2 °F 98% 29.54 in - WSW 15.0 mph 25.3 mph 0.12 in   Unknown
4:00 PM 46 °F - 45 °F 96% 29.54 in - West 15.0 mph - -  
4:00 PM 45.9 °F 39.4 °F 45.3 °F 98% 29.54 in - West 15.0 mph - 0.13 in   Unknown
5:00 PM 45.3 °F 37.6 °F 44.8 °F 98% 29.55 in - West 19.6 mph - 0.07 in   Unknown
6:00 PM 45.0 °F 36.6 °F 44.4 °F 98% 29.57 in - WNW 21.9 mph 27.6 mph 0.09 in   Unknown
7:00 PM 44.4 °F 35.7 °F 44.1 °F 99% 29.61 in - WNW 23.0 mph - 0.07 in   Unknown
8:00 PM 44.2 °F 35.2 °F 41.9 °F 91% 29.62 in - WNW 24.2 mph - 0.02 in   Unknown
9:00 PM 42.8 °F 32.7 °F 42.1 °F 97% 29.65 in - WNW 27.6 mph - 0.00 in   Unknown
10:00 PM 43 °F - 42 °F 95% 29.67 in - West 29.9 mph - -  
10:00 PM 42.8 °F 32.3 °F 42.1 °F 97% 29.67 in - West 29.9 mph 35.7 mph N/A   Unknown
11:00 PM 42.4 °F 31.8 °F 41.5 °F 97% 29.69 in - West 29.9 mph 35.7 mph N/A   Unknown